Notices

What's New in latest Release from April 7th, 2021:

- Updated Glossary, including Speed of Maximum Gust, and Total Hourly Precipitation

- Updated national and regional climate services offices contacts and prices information

- Addition of station inventory lists for 1981-2010, 1971-2000, and 1961-1990 Normals.

If you haven't already, please take our survey and provide feedback about our website: https://eccc.sondage-survey.ca/f/LanguageSelection.aspx?s=442ca660-fcf1-47c0-95a9-59707d6fd709

Hourly Data Report for April 18, 2012

MIRAMICHI RCS
NEW BRUNSWICK

47°00'34.000" N
65°27'54.000" W
33.00 m
8100989
71744
ACQ

Download Data

Hourly Data (April 2012)
Hourly Data Report for April 18, 2012
TIME
LST
Temp Definition
°C
Dew Point Definition
°C
Rel Hum Definition
%
Precip. Amount Definition
mm

Wind Dir Definition
10's deg

Wind Spd Definition
km/h
Visibility Definition
km
Stn Press Definition
kPa
Hmdx Definition


Wind Chill Definition


Weather Definition


00:00 12.2 3.8 56   34 9   101.28     LegendNANA
01:00 10.6 2.0 55   32 9   101.34     LegendNANA
02:00 8.9 0.8 57   34 7   101.38     LegendNANA
03:00 7.4 -0.7 56   33 9   101.46     LegendNANA
04:00 5.9 -0.9 62   31 6   101.48     LegendNANA
05:00 4.5 -1.7 64   31 7   101.56     LegendNANA
06:00 3.7 -3.2 61   32 9   101.66     LegendNANA
07:00 3.9 -3.2 60   33 11   101.74     LegendNANA
08:00 4.6 -3.2 57   33 15   101.79     LegendNANA
09:00 5.0 -3.8 53   34 13   101.82     LegendNANA
10:00 6.2 -3.7 49   32 11   101.81     LegendNANA
11:00 8.2 -2.7 46   32 9   101.76     LegendNANA
12:00 9.4 -2.8 42   33 6   101.75     LegendNANA
13:00 10.2 -2.5 41   35 11   101.72     LegendNANA
14:00 10.7 -2.1 41   36 9   101.68     LegendNANA
15:00 11.2 -2.9 37   35 9   101.64     LegendNANA
16:00 11.7 -2.2 38   36 9   101.60     LegendNANA
17:00 11.5 -2.2 38   2 9   101.68     LegendNANA
18:00 8.8 0.7 57   5 15   101.73     LegendNANA
19:00 6.6 0.4 65   9 17   101.80     LegendNANA
20:00 4.0 -0.5 72   9 13   101.87     LegendNANA
21:00 1.8 -1.1 81   10 9   101.92     LegendNANA
22:00 1.0 -0.8 88   7 11   101.93     LegendNANA
23:00 0.4 -1.3 88   7 11   101.96     LegendNANA

Notes on Data Quality.

Legend

  • E = Estimated
  • M = Missing
  • NA = Not Available*
  • [empty] = Indicates an unobserved value
Date modified: